SSEC Globe Logo

Space Science and Engineering Center

Surface Aviation Observations

KAIG 201015Z AUTO 26011KT 10SM SCT020 BKN050 OVC070 02/01
     A2971 RMK AO2 T00160007=
KAIG 201015Z AUTO 26011KT 10SM SCT020 BKN050 OVC070 02/01
     A2971 RMK AO2 T00160007=
KAIG 200955Z AUTO 27014G21KT 7SM -RA SCT018 BKN035 OVC043
     02/00 A2972 RMK AO2 T00211003=
KAIG 200955Z AUTO 27014G21KT 7SM -RA SCT018 BKN035 OVC043
     02/00 A2972 RMK AO2 T00211003=
KC29 201015Z AUTO 27007KT 10SM CLR 06/02 A2984 RMK AO1
     T00620018=
KC29 201015Z AUTO 27007KT 10SM CLR 06/02 A2984 RMK AO1
     T00620018=
KC29 200955Z AUTO 27007KT 10SM CLR 07/02 A2985 RMK AO1
     T00670017=
KC29 200955Z AUTO 27007KT 10SM CLR 07/02 A2985 RMK AO1
     T00670017=
KBCK 201015Z AUTO 28008KT 10SM CLR 06/00 A2981 RMK AO2
     T00620000=
KBCK 201015Z AUTO 28008KT 10SM CLR 06/00 A2981 RMK AO2
     T00620000=
KBCK 200955Z AUTO 27007KT 10SM CLR 06/00 A2981 RMK AO2
     T00610000=
KBCK 200955Z AUTO 27007KT 10SM CLR 06/00 A2981 RMK AO2
     T00610000=
KUBE 201015Z AUTO 32016G27KT 10SM BKN036 BKN043 BKN050
     02/M02 A2985 RMK AO2=
KUBE 201015Z AUTO 32016G27KT 10SM BKN036 BKN043 BKN050
     02/M02 A2985 RMK AO2=
KUBE 200955Z AUTO 31020G32KT 7SM -RA SCT017 BKN024 OVC044
     02/00 A2984 RMK AO2 P0001=
KUBE 200955Z AUTO 31020G32KT 7SM -RA SCT017 BKN024 OVC044
     02/00 A2984 RMK AO2 P0001=
KPVB 201015Z AUTO 26008KT 10SM CLR 05/03 A2990 RMK AO1
     T00540027=
KPVB 201015Z AUTO 26008KT 10SM CLR 05/03 A2990 RMK AO1
     T00540027=
KPVB 200955Z AUTO 26007KT 10SM CLR 05/03 A2990 RMK AO1
     T00500026=
KPVB 200955Z AUTO 26007KT 10SM CLR 05/03 A2990 RMK AO1
     T00500026=
KEZS 201015Z AUTO 23003KT 10SM SCT060 SCT095 BKN110 05/M02
     A2971 RMK AO2 T00491016=
KEZS 201015Z AUTO 23003KT 10SM SCT060 SCT095 BKN110 05/M02
     A2971 RMK AO2 T00491016=
KEZS 200955Z AUTO 00000KT 10SM SCT085 BKN110 05/M02 A2972
     RMK AO2 T00541016=
KEZS 200955Z AUTO 00000KT 10SM SCT085 BKN110 05/M02 A2972
     RMK AO2 T00541016=
KARV 201015Z AUTO 29010G17KT 260V320 10SM SCT010 BKN013
     OVC027 04/03 A2968 RMK AO2 T00400030=
KARV 201015Z AUTO 29010G17KT 260V320 10SM SCT010 BKN013
     OVC027 04/03 A2968 RMK AO2 T00400030=
KARV 200955Z AUTO 29009G16KT 10SM -RA SCT011 OVC014 04/03
     A2968 RMK AO2 T00400030=
KARV 200955Z AUTO 29009G16KT 10SM -RA SCT011 OVC014 04/03
     A2968 RMK AO2 T00400030=
KASX 200953Z AUTO 30010KT 10SM OVC070 01/00 A2981 RMK AO2 PK
     WND 33032/0901 RAB00E03SNB03E22 SLP100 P0005 T00110000=
KASX 200953Z AUTO 30010KT 10SM OVC070 01/00 A2981 RMK AO2 PK
     WND 33032/0901 RAB00E03SNB03E22 SLP100 P0005 T00110000=
KATW 201020Z 24006KT 10SM SKC 04/M01 A2973 RMK FIRST=
KATW 201015Z AUTO 24006KT 10SM CLR 03/M01 A2973 RMK AO2=
KATW 201015Z AUTO 24006KT 10SM CLR 03/M01 A2973 RMK AO2=
KATW 200955Z AUTO 24007KT 10SM CLR 03/M01 A2974 RMK AO2=
KATW 200955Z AUTO 24007KT 10SM CLR 03/M01 A2974 RMK AO2=
KAUW 200954Z AUTO 30010G16KT 10SM FEW028 SCT033 OVC043 05/01
     A2973 RMK AO2 SLP078 T00500011 TSNO=
KAUW 200954Z AUTO 30010G16KT 10SM FEW028 SCT033 OVC043 05/01
     A2973 RMK AO2 SLP078 T00500011 TSNO=
KBUU 200955Z AUTO 26005KT 10SM CLR 07/02 A2983 RMK AO2
     T00660016=
KBUU 200955Z AUTO 26005KT 10SM CLR 07/02 A2983 RMK AO2
     T00660016=
KCLI 201015Z AUTO 24006KT 10SM SCT110 04/00 A2973 RMK AO2
     T00391005=
KCLI 201015Z AUTO 24006KT 10SM SCT110 04/00 A2973 RMK AO2
     T00391005=
KCLI 200955Z AUTO 22006KT 10SM BKN110 03/M02 A2973 RMK AO2
     T00281019=
KCLI 200955Z AUTO 22006KT 10SM BKN110 03/M02 A2973 RMK AO2
     T00281019=
KCMY 201015Z AUTO 25005KT 10SM CLR 06/02 A2984 RMK AO2
     T00560017=
KCMY 201015Z AUTO 25005KT 10SM CLR 06/02 A2984 RMK AO2
     T00560017=
KCMY 200955Z AUTO 25006KT 10SM CLR 06/02 A2984 RMK AO2
     T00560018=
KCMY 200955Z AUTO 25006KT 10SM CLR 06/02 A2984 RMK AO2
     T00560018=
KCWA 201015Z AUTO 28008KT 7SM BKN032 OVC044 03/01 A2975 RMK
     AO2=
KCWA 201015Z AUTO 28008KT 7SM BKN032 OVC044 03/01 A2975 RMK
     AO2=
KCWA 200955Z AUTO 25007KT 10SM BKN036 OVC043 03/01 A2975 RMK
     AO2=
KCWA 200955Z AUTO 25007KT 10SM BKN036 OVC043 03/01 A2975 RMK
     AO2=
KDLL 201015Z AUTO 25007KT 10SM CLR 06/00 A2981 RMK AO2
     T00610003=
KDLL 201015Z AUTO 25007KT 10SM CLR 06/00 A2981 RMK AO2
     T00610003=
KDLL 200955Z AUTO 25007KT 10SM CLR 06/00 A2982 RMK AO2
     T00610001=
KDLL 200955Z AUTO 25007KT 10SM CLR 06/00 A2982 RMK AO2
     T00610001=
KEAU 200956Z AUTO 28008KT 10SM FEW035 SCT050 BKN060 07/01
     A2981 RMK AO2 SLP098 T00670006=
KEAU 200956Z AUTO 28008KT 10SM FEW035 SCT050 BKN060 07/01
     A2981 RMK AO2 SLP098 T00670006=
KEFT 201015Z AUTO 26012KT 10SM CLR 06/01 A2986 RMK AO2
     T00580010=
KEFT 201015Z AUTO 26012KT 10SM CLR 06/01 A2986 RMK AO2
     T00580010=
KEFT 200955Z AUTO 26013KT 10SM CLR 06/01 A2986 RMK AO2
     T00580010=
KEFT 200955Z AUTO 26013KT 10SM CLR 06/01 A2986 RMK AO2
     T00580010=
KEGV 201015Z AUTO 31008G14KT 7SM -DZ OVC009 02/02 A2966 RMK
     AO2 T00220020=
KEGV 201015Z AUTO 31008G14KT 7SM -DZ OVC009 02/02 A2966 RMK
     AO2 T00220020=
KEGV 200955Z AUTO 26006KT 10SM -DZ OVC009 02/02 A2966 RMK
     AO2 T00180017=
KEGV 200955Z AUTO 26006KT 10SM -DZ OVC009 02/02 A2966 RMK
     AO2 T00180017=
KENW 200953Z AUTO 28010KT 10SM CLR 07/03 A2983 RMK AO2
     SLP102 T00720028=
KENW 200953Z AUTO 28010KT 10SM CLR 07/03 A2983 RMK AO2
     SLP102 T00720028=
KETB 201015Z AUTO 27006KT 10SM CLR 06/01 A2978 RMK AO2=
KETB 201015Z AUTO 27006KT 10SM CLR 06/01 A2978 RMK AO2=
KETB 200955Z AUTO 27007KT 10SM CLR 06/01 A2979 RMK AO2=
KETB 200955Z AUTO 27007KT 10SM CLR 06/01 A2979 RMK AO2=
KFLD 200953Z AUTO 25005KT 10SM CLR 06/01 A2978 RMK AO2
     SLP088 T00560011=
KFLD 200953Z AUTO 25005KT 10SM CLR 06/01 A2978 RMK AO2
     SLP088 T00560011=
KGRB 200953Z AUTO 20003KT 10SM CLR 04/M01 A2974 RMK AO2
     SLP075 T00441006=
KGRB 200953Z AUTO 20003KT 10SM CLR 04/M01 A2974 RMK AO2
     SLP075 T00441006=
KHYR 200953Z AUTO VRB05KT 10SM OVC048 02/00 A2982 RMK AO2 PK
     WND 29031/0919 RAB17E23SNB23E35 SLP107 P0002 T00170000=
KHYR 200953Z AUTO VRB05KT 10SM OVC048 02/00 A2982 RMK AO2 PK
     WND 29031/0919 RAB17E23SNB23E35 SLP107 P0002 T00170000=
KISW 200954Z AUTO 24006KT 10SM CLR 05/M01 A2978 RMK AO2
     SLP087 T00501011 TSNO=
KISW 200954Z AUTO 24006KT 10SM CLR 05/M01 A2978 RMK AO2
     SLP087 T00501011 TSNO=
KJVL 201015Z AUTO 27006KT 10SM CLR 06/01 A2985 RMK AO2=
KJVL 201015Z AUTO 27006KT 10SM CLR 06/01 A2985 RMK AO2=
KJVL 200955Z AUTO 27007KT 10SM CLR 06/01 A2985 RMK AO2=
KJVL 200955Z AUTO 27007KT 10SM CLR 06/01 A2985 RMK AO2=
KLNL 201015Z AUTO 34006KT 1/4SM SN OVC003 01/01 A2969 RMK
     AO2 T00070005=
KLNL 201015Z AUTO 34006KT 1/4SM SN OVC003 01/01 A2969 RMK
     AO2 T00070005=
KLNL 200955Z AUTO 28005KT 3/4SM SN OVC005 01/00 A2969 RMK
     AO2 P0001 T00100003=
KLNL 200955Z AUTO 28005KT 3/4SM SN OVC005 01/00 A2969 RMK
     AO2 P0001 T00100003=
KLNR 200956Z AUTO 27008KT 10SM CLR 07/02 A2986 RMK AO2
     SLP109 T00720022=
KLNR 200956Z AUTO 27008KT 10SM CLR 07/02 A2986 RMK AO2
     SLP109 T00720022=
KLSE 200953Z AUTO 28014G24KT 10SM CLR 08/01 A2985 RMK AO2
     SLP108 T00830006=
KLSE 200953Z AUTO 28014G24KT 10SM CLR 08/01 A2985 RMK AO2
     SLP108 T00830006=
KLUM 201015Z AUTO 27019G24KT 10SM SCT055 BKN070 05/M02 A2984
     RMK AO2 T00501019=
KLUM 201015Z AUTO 27019G24KT 10SM SCT055 BKN070 05/M02 A2984
     RMK AO2 T00501019=
KLUM 200955Z AUTO 28010KT 10SM SCT039 SCT047 BKN055 05/M01
     A2984 RMK AO2 T00521015=
KLUM 200955Z AUTO 28010KT 10SM SCT039 SCT047 BKN055 05/M01
     A2984 RMK AO2 T00521015=
KMDZ 201015Z AUTO 28009KT 10SM BKN026 BKN035 OVC050 03/01
     A2975 RMK AO2 T00330006=
KMDZ 201015Z AUTO 28009KT 10SM BKN026 BKN035 OVC050 03/01
     A2975 RMK AO2 T00330006=
KMDZ 200955Z AUTO 27005KT 10SM SCT021 BKN060 OVC100 03/01
     A2974 RMK AO2 T00290005=
KMDZ 200955Z AUTO 27005KT 10SM SCT021 BKN060 OVC100 03/01
     A2974 RMK AO2 T00290005=
KMFI 200954Z AUTO 28011G20KT 10SM FEW100 04/01 A2975 RMK AO2
     SLP078 T00440006 TSNO=
KMFI 200954Z AUTO 28011G20KT 10SM FEW100 04/01 A2975 RMK AO2
     SLP078 T00440006 TSNO=
KMKE 200952Z 27008KT 10SM CLR 09/02 A2981 RMK AO2 SLP096
     T00890022=
KMKE 200952Z 27008KT 10SM CLR 09/02 A2981 RMK AO2 SLP096
     T00890022=
KMRJ 201015Z AUTO 27007KT 10SM CLR 05/03 A2988 RMK AO2=
KMRJ 201015Z AUTO 27007KT 10SM CLR 05/03 A2988 RMK AO2=
KMRJ 200955Z AUTO 26007KT 10SM CLR 05/03 A2987 RMK AO2=
KMRJ 200955Z AUTO 26007KT 10SM CLR 05/03 A2987 RMK AO2=
KMSN 200953Z AUTO VRB06KT 10SM CLR 07/01 A2983 RMK AO2
     SLP106 T00670011=
KMSN 200953Z AUTO VRB06KT 10SM CLR 07/01 A2983 RMK AO2
     SLP106 T00670011=
KMTW 200956Z AUTO 27008KT 10SM CLR 06/00 A2976 RMK AO2
     SLP098 T00610000=
KMTW 200956Z AUTO 27008KT 10SM CLR 06/00 A2976 RMK AO2
     SLP098 T00610000=
KMWC 201015Z AUTO 26006KT 10SM CLR 05/00 A2981 RMK AO2=
KMWC 201015Z AUTO 26006KT 10SM CLR 05/00 A2981 RMK AO2=
KMWC 200955Z AUTO 27007KT 10SM CLR 06/00 A2981 RMK AO2=
KMWC 200955Z AUTO 27007KT 10SM CLR 06/00 A2981 RMK AO2=
KOEO 201015Z AUTO 32014G18KT 10SM BKN040 BKN048 OVC050
     06/M02 A2993 RMK AO2 T00551025=
KOEO 201015Z AUTO 32014G18KT 10SM BKN040 BKN048 OVC050
     06/M02 A2993 RMK AO2 T00551025=
KOEO 200955Z AUTO 31021G31KT 10SM SCT043 BKN050 OVC065
     06/M02 A2992 RMK AO2 T00611024=
KOEO 200955Z AUTO 31021G31KT 10SM SCT043 BKN050 OVC065
     06/M02 A2992 RMK AO2 T00611024=
KOSH 200953Z AUTO 24003KT 10SM CLR 05/01 A2976 RMK AO2
     SLP081 T00500011=
KOSH 200953Z AUTO 24003KT 10SM CLR 05/01 A2976 RMK AO2
     SLP081 T00500011=
KOVS 200953Z AUTO 23005KT 10SM CLR 07/02 A2989 RMK AO2
     SLP125 T00720017=
KOVS 200953Z AUTO 23005KT 10SM CLR 07/02 A2989 RMK AO2
     SLP125 T00720017=
KPBH 201015Z AUTO 29007G14KT 250V320 10SM BKN018 BKN024
     OVC030 03/01 A2972 RMK AO2 T00300011=
KPBH 201015Z AUTO 29007G14KT 250V320 10SM BKN018 BKN024
     OVC030 03/01 A2972 RMK AO2 T00300011=
KPBH 200955Z AUTO 28007G18KT 10SM BKN014 BKN022 OVC029 03/01
     A2972 RMK AO2 T00320014=
KPBH 200955Z AUTO 28007G18KT 10SM BKN014 BKN022 OVC029 03/01
     A2972 RMK AO2 T00320014=
KPCZ 201015Z AUTO 25007KT 10SM CLR 06/01 A2975 RMK AO2
     T00570014=
KPCZ 201015Z AUTO 25007KT 10SM CLR 06/01 A2975 RMK AO2
     T00570014=
KPCZ 200955Z AUTO 26006KT 10SM CLR 05/02 A2976 RMK AO2
     T00530015=
KPCZ 200955Z AUTO 26006KT 10SM CLR 05/02 A2976 RMK AO2
     T00530015=
KPDC 201015Z AUTO 26009G15KT 10SM CLR 07/00 A2990 RMK AO2
     T00730004=
KPDC 201015Z AUTO 26009G15KT 10SM CLR 07/00 A2990 RMK AO2
     T00730004=
KPDC 200955Z AUTO 26010KT 10SM CLR 07/01 A2991 RMK AO2
     T00740005=
KPDC 200955Z AUTO 26010KT 10SM CLR 07/01 A2991 RMK AO2
     T00740005=
KRAC 200953Z AUTO 27007KT 10SM CLR 08/02 A2983 RMK AO2
     SLP103 T00780022=
KRAC 200953Z AUTO 27007KT 10SM CLR 08/02 A2983 RMK AO2
     SLP103 T00780022=
KRCX 201015Z AUTO 30026G31KT 10SM SCT025 SCT034 BKN065 04/00
     A2981 RMK AO2 T00431003=
KRCX 201015Z AUTO 30026G31KT 10SM SCT025 SCT034 BKN065 04/00
     A2981 RMK AO2 T00431003=
KRCX 200955Z AUTO 29016G29KT 10SM SCT027 BKN065 OVC075 05/00
     A2979 RMK AO2 T00500000=
KRCX 200955Z AUTO 29016G29KT 10SM SCT027 BKN065 OVC075 05/00
     A2979 RMK AO2 T00500000=
KRHI 200953Z AUTO 26012KT 10SM BKN020 BKN028 OVC080 04/00
     A2969 RMK AO2 RAB13E22 SLP059 P0000 T00440000 $=
KRHI 200953Z AUTO 26012KT 10SM BKN020 BKN028 OVC080 04/00
     A2969 RMK AO2 RAB13E22 SLP059 P0000 T00440000 $=
KRNH 201015Z AUTO 30019G29KT 10SM SCT044 BKN060 05/M06 A2989
     RMK AO2 T00531060=
KRNH 201015Z AUTO 30019G29KT 10SM SCT044 BKN060 05/M06 A2989
     RMK AO2 T00531060=
KRNH 200955Z AUTO 30021G32KT 10SM SCT060 06/M07 A2987 RMK
     AO2 T00561070=
KRNH 200955Z AUTO 30021G32KT 10SM SCT060 06/M07 A2987 RMK
     AO2 T00561070=
KRPD 201015Z AUTO 31011G22KT 280V340 10SM SCT020 BKN031
     OVC046 04/M01 A2985 RMK AO2 T00421008=
KRPD 201015Z AUTO 31011G22KT 280V340 10SM SCT020 BKN031
     OVC046 04/M01 A2985 RMK AO2 T00421008=
KRPD 200955Z AUTO 29011G22KT 7SM -RA SCT020 OVC027 04/01
     A2984 RMK AO2 T00400008=
KRPD 200955Z AUTO 29011G22KT 7SM -RA SCT020 OVC027 04/01
     A2984 RMK AO2 T00400008=
KRRL 201015Z AUTO 28008KT 10SM SCT060 SCT075 OVC090 03/02
     A2973 RMK AO2 T00270020 TSNO=
KRRL 201015Z AUTO 28008KT 10SM SCT060 SCT075 OVC090 03/02
     A2973 RMK AO2 T00270020 TSNO=
KRRL 200955Z AUTO 29007G16KT 10SM SCT016 BKN045 OVC060 03/02
     A2973 RMK AO2 T00300020 TSNO=
KRRL 200955Z AUTO 29007G16KT 10SM SCT016 BKN045 OVC060 03/02
     A2973 RMK AO2 T00300020 TSNO=
KRYV 201015Z AUTO 25006KT 10SM CLR 06/02 A2981 RMK AO2
     T00560020=
KRYV 201015Z AUTO 25006KT 10SM CLR 06/02 A2981 RMK AO2
     T00560020=
KRYV 200955Z AUTO 25005KT 10SM CLR 06/02 A2981 RMK AO2
     T00550022=
KRYV 200955Z AUTO 25005KT 10SM CLR 06/02 A2981 RMK AO2
     T00550022=
KRZN 201015Z AUTO 36019G26KT 10SM SCT029 SCT033 OVC050
     03/M03 A2989 RMK AO2 T00311030=
KRZN 201015Z AUTO 36019G26KT 10SM SCT029 SCT033 OVC050
     03/M03 A2989 RMK AO2 T00311030=
KRZN 200955Z AUTO 33014G21KT 10SM SCT050 03/M04 A2988 RMK
     AO2 T00341040=
KRZN 200955Z AUTO 33014G21KT 10SM SCT050 03/M04 A2988 RMK
     AO2 T00341040=
KSBM 200953Z AUTO 29008KT 10SM CLR 07/01 A2977 RMK AO2
     SLP083 T00670006=
KSBM 200953Z AUTO 29008KT 10SM CLR 07/01 A2977 RMK AO2
     SLP083 T00670006=
KSTE 201015Z AUTO 25005KT 10SM SCT044 SCT100 04/00 A2975 RMK
     AO2 T00350000=
KSTE 201015Z AUTO 25005KT 10SM SCT044 SCT100 04/00 A2975 RMK
     AO2 T00350000=
KSTE 200955Z AUTO 24003KT 10SM BKN044 04/00 A2975 RMK AO2
     T00400001=
KSTE 200955Z AUTO 24003KT 10SM BKN044 04/00 A2975 RMK AO2
     T00400001=
KSUE 200956Z AUTO 27006KT 10SM CLR 06/01 A2972 RMK AO2
     SLP088 T00610011=
KSUE 200956Z AUTO 27006KT 10SM CLR 06/01 A2972 RMK AO2
     SLP088 T00610011=
KSUW 201015Z AUTO 30008KT 10SM SCT031 BKN060 01/M02 A2988
     RMK AO2 T00121024=
KSUW 201015Z AUTO 30008KT 10SM SCT031 BKN060 01/M02 A2988
     RMK AO2 T00121024=
KSUW 200955Z AUTO 31007KT 10SM CLR 01/M02 A2987 RMK AO2
     T00081025=
KSUW 200955Z AUTO 31007KT 10SM CLR 01/M02 A2987 RMK AO2
     T00081025=
KTKV 201015Z AUTO 28009G17KT 10SM BKN014 OVC019 03/01 A2972
     RMK AO2 T00280009=
KTKV 201015Z AUTO 28009G17KT 10SM BKN014 OVC019 03/01 A2972
     RMK AO2 T00280009=
KTKV 200955Z AUTO 27008KT 10SM BKN014 BKN075 OVC090 03/01
     A2972 RMK AO2 T00250007=
KTKV 200955Z AUTO 27008KT 10SM BKN014 BKN075 OVC090 03/01
     A2972 RMK AO2 T00250007=
KUES 201015Z AUTO 26008KT 10SM CLR 05/00 A2981 RMK AO2=
KUES 201015Z AUTO 26008KT 10SM CLR 05/00 A2981 RMK AO2=
KUES 200955Z AUTO 27008KT 10SM CLR 06/00 A2982 RMK AO2=
KUES 200955Z AUTO 27008KT 10SM CLR 06/00 A2982 RMK AO2=
KUNU 201015Z AUTO 24005KT 10SM CLR 04/01 A2981 RMK AO2
     T00420007=
KUNU 201015Z AUTO 24005KT 10SM CLR 04/01 A2981 RMK AO2
     T00420007=
KUNU 200955Z AUTO 26005KT 10SM CLR 06/01 A2981 RMK AO2
     T00610010=
KUNU 200955Z AUTO 26005KT 10SM CLR 06/01 A2981 RMK AO2
     T00610010=
KVOK 200956Z AUTO 25010KT 10SM CLR 06/02 A2980 RMK AO2
     SLP097 T00630016=
KVOK 200956Z AUTO 25010KT 10SM CLR 06/02 A2980 RMK AO2
     SLP097 T00630016=
KVOK 200956Z AUTO 25010KT 10SM CLR 06/02 A2980 RMK AO2
     SLP097 T00630016=
METAR KVOK 200956Z AUTO 25010KT 10SM CLR 06/02 A2980 RMK AO2
     SLP097 T00630016=
METAR KVOK 200956Z AUTO 25010KT 10SM CLR 06/02 A2980 RMK AO2
     SLP097 T00630016=
KY50 200956Z AUTO 24007KT 10SM CLR 05/01 A2978 RMK AO2
     SLP113 T00500011=
KY50 200956Z AUTO 24007KT 10SM CLR 05/01 A2978 RMK AO2
     SLP113 T00500011=
KY51 201015Z AUTO 25007KT 10SM SCT001 04/02 A2986 RMK AO1
     T00430023=
KY51 201015Z AUTO 25007KT 10SM SCT001 04/02 A2986 RMK AO1
     T00430023=
KY51 200955Z AUTO 25008KT 10SM SCT001 05/02 A2986 RMK AO1
     T00460022=
KY51 200955Z AUTO 25008KT 10SM SCT001 05/02 A2986 RMK AO1
     T00460022=
KY23 201015Z AUTO 30012G19KT 10SM -RA SCT013 SCT020 OVC027
     03/02 A2983 RMK AO2 P0001 T00320015=
KY23 201015Z AUTO 30012G19KT 10SM -RA SCT013 SCT020 OVC027
     03/02 A2983 RMK AO2 P0001 T00320015=
KY23 200955Z AUTO 31008G19KT 270V360 10SM -RA SCT025 BKN030
     OVC050 05/01 A2983 RMK AO2 T00540007=
KY23 200955Z AUTO 31008G19KT 270V360 10SM -RA SCT025 BKN030
     OVC050 05/01 A2983 RMK AO2 T00540007=
K3D2 201015Z AUTO 30007KT 10SM BKN100 OVC120 06/M01 A2968
     RMK AO2 T00611007=
K3D2 201015Z AUTO 30007KT 10SM BKN100 OVC120 06/M01 A2968
     RMK AO2 T00611007=
K3D2 200955Z AUTO 29007KT 10SM BKN110 06/00 A2969 RMK AO2
     T00601005=
K3D2 200955Z AUTO 29007KT 10SM BKN110 06/00 A2969 RMK AO2
     T00601005=
KD25 201015Z AUTO 30009KT 10SM BKN009 OVC016 02/02 A2969 RMK
     AO2 T00200020=
KD25 201015Z AUTO 30009KT 10SM BKN009 OVC016 02/02 A2969 RMK
     AO2 T00200020=
KD25 200955Z AUTO 28011G16KT 7SM -RA OVC009 02/02 A2969 RMK
     AO2 T00220022=
KD25 200955Z AUTO 28011G16KT 7SM -RA OVC009 02/02 A2969 RMK
     AO2 T00220022=
K82C 201015Z AUTO 26011G16KT 10SM CLR 07/02 A2980 RMK AO2
     T00730015=
K82C 201015Z AUTO 26011G16KT 10SM CLR 07/02 A2980 RMK AO2
     T00730015=
K82C 200955Z AUTO 25013G17KT 10SM CLR 07/02 A2980 RMK AO2
     T00730015=
K82C 200955Z AUTO 25013G17KT 10SM CLR 07/02 A2980 RMK AO2
     T00730015=
KOCQ 201015Z AUTO 00000KT 10SM SCT120 01/M01 A2971 RMK AO1
     T00061010=
KOCQ 201015Z AUTO 00000KT 10SM SCT120 01/M01 A2971 RMK AO1
     T00061010=
KOCQ 200955Z AUTO 00000KT 10SM SCT110 01/M01 A2971 RMK AO1
     T00121011=
KOCQ 200955Z AUTO 00000KT 10SM SCT110 01/M01 A2971 RMK AO1
     T00121011=
KC35 201015Z AUTO 24007KT 10SM CLR 06/01 A2982 RMK AO2
     T00570010=
KC35 201015Z AUTO 24007KT 10SM CLR 06/01 A2982 RMK AO2
     T00570010=
KC35 200955Z AUTO 25006KT 10SM CLR 06/01 A2983 RMK AO2
     T00600009=
KC35 200955Z AUTO 25006KT 10SM CLR 06/01 A2983 RMK AO2
     T00600009=
KOLG 201015Z AUTO 32008KT 270V340 10SM SCT031 00/M01 A2985
     RMK AO1=
KOLG 201015Z AUTO 32008KT 270V340 10SM SCT031 00/M01 A2985
     RMK AO1=
KOLG 200955Z AUTO 31011G16KT 10SM SCT070 00/M01 A2984 RMK
     AO1=
KOLG 200955Z AUTO 31011G16KT 10SM SCT070 00/M01 A2984 RMK
     AO1=
K2P2 201015Z AUTO 32004KT 10SM OVC110 06/00 A2968 RMK AO2
     T00610000=
K2P2 201015Z AUTO 32004KT 10SM OVC110 06/00 A2968 RMK AO2
     T00610000=
K2P2 200955Z AUTO 32004KT 10SM SCT110 07/00 A2969 RMK AO2
     T00651001=
K2P2 200955Z AUTO 32004KT 10SM SCT110 07/00 A2969 RMK AO2
     T00651001=
KDBQ 200953Z AUTO 27010KT 10SM CLR 05/01 A2993 RMK AO2
     SLP138 T00500011=
KDBQ 200953Z AUTO 27010KT 10SM CLR 05/01 A2993 RMK AO2
     SLP138 T00500011=
KRST 200954Z 27011G18KT 10SM BKN090 05/01 A2991 RMK AO2
     SLP133 T00500006=
KRST 200954Z 27011G18KT 10SM BKN090 05/01 A2991 RMK AO2
     SLP133 T00500006=
KMSP 200953Z 32026G38KT 10SM FEW040 SCT060 07/M03 A2992 RMK
     AO2 PK WND 32043/0923 SLP135 T00671028=
KMSP 200953Z 32026G38KT 10SM FEW040 SCT060 07/M03 A2992 RMK
     AO2 PK WND 32043/0923 SLP135 T00671028=
KRFD 200954Z 25006KT 10SM CLR 05/01 A2990 RMK AO2 SLP127
     T00500011=
KRFD 200954Z 25006KT 10SM CLR 05/01 A2990 RMK AO2 SLP127
     T00500011=
KORD 200951Z 28009KT 10SM CLR 08/02 A2985 RMK AO2 SLP111
     T00830022=
KORD 200951Z 28009KT 10SM CLR 08/02 A2985 RMK AO2 SLP111
     T00830022=